Hourly Data Report for July 12, 2012

HALIFAX STANFIELD INT'L A
NOVA SCOTIA

44°52'48.060" N
63°30'00.050" W
145.40 m
8202250
71395
YHZ

Download Data

Hourly Data (July 2012)
Hourly Data Report for July 12, 2012
TIME
LST
Temp Definition
°C
Dew Point Definition
°C
Rel Hum Definition
%
Precip. Amount Definition
mm

Wind Dir Definition
10's deg

Wind Spd Definition
km/h
Visibility Definition
km
Stn Press Definition
kPa
Hmdx Definition


Wind Chill Definition


Weather Definition


00:00 16.7 14.1 85   21 13 24.1 100.58     Mainly Clear
01:00 16.2 13.4 83   22 13 24.1 100.59     Mainly Clear
02:00 16.6 12.7 78   23 11 24.1 100.58     Mainly Clear
03:00 15.3 12.6 84   22 9 24.1 100.57     Mainly Clear
04:00 16.1 11.5 74   22 9 24.1 100.57     Mainly Clear
05:00 14.6 12.4 87   22 7 24.1 100.61     Mainly Clear
06:00 16.5 13.5 82     0 24.1 100.64     Mainly Clear
07:00 16.8 13.0 78   18 9 24.1 100.63     Mainly Clear
08:00 18.6 14.8 79   17 7 24.1 100.64     Mostly Cloudy
09:00 21.5 13.9 62   19 17 24.1 100.63 25   Mostly Cloudy
10:00 23.8 13.5 52   21 13 24.1 100.59 27   Mainly Clear
11:00 24.3 15.2 57   22 22 24.1 100.59 28   Mainly Clear
12:00 24.2 16.4 62   21 26 24.1 100.59 29   Mainly Clear
13:00 24.8 15.0 54   21 30 24.1 100.55 29   Mainly Clear
14:00 24.9 13.6 49   22 26 24.1 100.49 28   Mainly Clear
15:00 25.2 12.4 45   20 28 24.1 100.49 28   Mainly Clear
16:00 25.2 12.5 45   21 24 24.1 100.43 28   Mostly Cloudy
17:00 23.8 12.4 49   19 22 24.1 100.36 26   Mostly Cloudy
18:00 23.1 13.1 53   18 22 24.1 100.34 26   Mostly Cloudy
19:00 20.8 12.5 59   19 24 24.1 100.31     Mostly Cloudy
20:00 18.4 12.2 67   20 17 24.1 100.37     Mostly Cloudy
21:00 16.4 11.8 74   18 13 24.1 100.40     Mostly Cloudy
22:00 15.1 13.1 88   18 11 24.1 100.37     Mainly Clear
23:00 14.5 13.9 96   18 11 19.3 100.37     Mainly Clear

Notes on Data Quality.

Legend

  • E = Estimated
  • M = Missing
  • NA = Not Available*
  • [empty] = Indicates an unobserved value
Date modified: